GFSSE_con_sbcape_198.txt.gz
CAPE
1105 1933 3311 2915 2284 2150 2078 1774 1730 1364 896 747 534 505 720 504 395 359 344 695 832 988 644 269 12 6 3 1 103 170 25 7 18 3 0 0 12 26 49 61 53 16 58
1412 2508 3332 3061 2471 1825 1586 1499 1627 1312 1078 840 669 709 697 442 357 344 371 490 889 1017 716 276 62 1 0 17 136 278 31 1 0 0 0 0 26 14 20 43 31 6 54
1984 2453 2827 3094 2769 2049 1605 1587 1728 1451 1168 942 1066 953 910 746 573 421 355 539 969 1000 695 304 105 57 35 87 258 203 4 0 0 0 0 0 12 40 13 12 31 38 46
2016 2317 2494 3150 2928 2607 2037 1773 1539 1562 1387 1087 1383 1258 1411 1066 778 437 387 733 1060 989 651 285 156 64 59 123 157 269 0 0 0 0 0 0 0 48 45 37 55 59 41
2020 2123 2375 3151 2955 2717 2339 1727 1398 1371 1829 1175 1787 1784 1500 1459 1007 643 527 829 1091 857 624 353 201 76 35 65 144 123 0 0 0 0 0 0 0 21 33 34 17 26 41
1863 1992 2746 3165 3035 2742 2146 1730 1794 1589 2066 1530 1488 1915 1645 1567 1324 943 599 875 1127 954 695 414 241 103 32 26 108 124 0 0 0 0 0 0 5 20 37 23 51 42 42
1646 2044 2624 3202 3030 2750 2407 1961 2106 1762 2323 1808 1812 2107 1867 1685 1698 1272 787 814 1036 1008 812 548 311 141 43 8 94 163 0 0 0 0 0 0 0 39 42 46 32 44 33
1281 1991 2553 3179 3233 3229 2606 2460 2139 1934 2265 2174 2267 2088 1805 1747 1753 1692 1190 904 1013 936 1032 741 464 234 69 5 54 25 0 0 0 0 0 0 140 31 30 30 32 53 43
1451 2063 2418 2807 3042 3158 2820 2717 2836 2640 2571 2534 2037 1644 1870 1957 1827 1918 1613 1176 997 1128 1152 1030 681 379 155 50 15 139 0 0 0 0 0 0 107 11 27 18 39 36 51
1967 2127 2194 2505 2631 2434 2266 2694 2871 2923 2761 2796 2301 1865 1933 2179 2237 1924 1809 1565 1102 1256 1040 977 1077 743 358 171 42 151 7 0 0 0 0 1 8 9 21 28 33 24 43
1931 2045 2244 2253 2267 1987 1758 2275 2707 2850 2929 2660 2255 2195 1961 1401 1450 1660 1614 1643 1529 1235 1321 1024 941 1022 793 569 322 373 27 0 0 0 0 146 2 26 16 24 24 30 26
1446 1772 1921 1910 1853 1563 1840 1829 2204 2019 2134 1923 1679 1383 1268 1001 947 1453 1590 1861 1735 1521 1502 1193 985 1093 871 280 18 130 0 0 0 0 2 179 14 49 17 19 18 20 23
72 466 1508 1421 1364 1192 1441 1548 1803 1589 1511 1460 1278 962 785 819 544 738 1059 1351 1124 1403 902 987 840 696 648 210 82 59 0 0 0 1 50 220 26 33 15 14 16 15 20
0 0 516 903 1041 772 716 1017 1120 1151 1094 1079 997 749 462 325 45 44 761 760 704 700 541 563 279 157 123 56 13 2 0 0 2 11 41 245 88 40 29 13 13 17 14
0 0 0 507 232 410 350 687 819 916 930 727 506 550 279 111 6 36 389 562 486 291 430 348 233 30 0 0 0 11 0 0 1 25 27 254 190 62 40 28 14 15 20
0 0 0 0 0 309 244 663 841 839 735 551 387 387 273 252 133 219 621 545 445 345 255 229 274 37 0 0 0 0 0 0 2 14 23 80 133 109 60 46 8 12 12
0 0 0 0 0 0 24 507 692 552 532 509 524 509 649 487 446 518 657 609 519 422 188 187 35 0 0 0 0 60 0 0 0 7 47 48 62 110 108 61 31 13 14
0 0 0 0 0 0 0 0 524 845 960 801 685 689 923 736 437 414 365 507 457 184 189 168 46 0 0 2 95 51 0 0 0 10 43 34 16 40 69 125 94 45 8
0 0 0 0 0 0 0 0 0 64 43 172 623 716 880 960 747 365 198 334 301 182 145 121 124 34 2 67 100 0 0 3 10 19 37 16 18 8 11 92 110 99 14
0 0 0 0 0 0 0 0 0 0 0 0 320 697 745 875 831 479 419 430 230 135 89 128 179 36 63 122 1 0 0 1 6 25 16 15 31 11 25 49 8 17 91
0 0 0 0 0 0 0 0 0 0 0 0 550 588 822 739 142 454 435 373 182 176 174 141 62 91 0 0 0 0 0 0 0 0 0 2 46 57 11 2 1 5 25
0 0 0 0 0 0 0 0 0 1 0 0 53 580 608 77 234 396 568 353 255 33 76 93 19 0 0 0 0 0 4 0 0 0 12 20 17 67 10 33 11 17 7
0 0 0 0 0 0 0 0 0 1 0 18 252 375 0 97 19 140 541 316 257 244 112 118 29 4 3 0 0 0 0 0 2 1 25 7 7 9 2 1 0 1 2
0 0 0 0 0 0 0 0 0 2 1 0 8 366 30 141 35 1 0 0 0 13 177 79 27 0 0 0 0 0 0 0 0 1 8 7 2 2 2 3 3 2 0
0 0 0 0 0 0 0 0 0 18 2 2 62 535 115 40 0 0 0 0 15 174 122 29 8 0 0 0 0 0 0 0 0 0 5 5 1 3 3 2 2 2 1
0 0 0 0 0 0 0 0 0 15 95 106 133 529 325 1 0 7 75 321 380 257 118 50 35 21 0 0 0 0 0 0 0 0 0 7 2 4 2 2 1 2 2

GFSSE_con_sbcape_201.txt.gz
CAPE
946 1110 3045 2176 2194 2174 2103 1682 1903 1267 854 663 510 819 719 595 579 467 727 935 1133 711 465 45 43 4 39 158 273 26 5 1 6 5 10 15 7 8 17 28 2 5 53
1046 1763 3197 2940 2554 2052 1883 1780 1910 1321 1063 749 739 730 716 448 422 501 468 949 1167 862 472 194 66 19 85 229 329 42 0 0 0 0 0 0 43 16 3 11 42 43 30
1320 2391 2879 3194 2842 2130 1743 1581 1863 1539 1238 924 969 879 771 627 603 517 446 1055 1163 888 533 227 140 134 207 299 268 0 0 0 0 0 0 0 1 47 42 42 23 25 31
1998 2497 2541 3197 2999 2771 2410 2359 1959 1688 1365 1079 1424 1212 1255 917 652 360 523 959 1085 857 498 269 157 162 247 229 342 0 0 0 0 0 0 0 0 25 18 26 39 54 35
2084 2389 2418 3272 3130 2930 2696 2160 2013 1883 1596 1274 1717 1573 1724 1385 926 585 705 1116 1012 870 522 278 152 114 162 200 177 0 0 0 0 0 0 0 0 27 25 55 31 33 39
2006 2127 2687 3327 3190 3037 2439 2136 1838 1503 1985 1418 2009 2034 1757 1747 1321 842 683 961 1089 947 577 317 191 99 84 109 113 29 0 0 0 0 0 0 0 38 55 18 44 32 36
1753 1809 2594 3395 3056 2834 2455 1977 1790 1669 2475 1837 1654 2087 1857 1819 1658 1264 812 957 1260 1187 726 431 238 115 38 123 347 0 0 0 0 0 0 0 14 37 29 33 50 45 27
1639 1867 2359 3286 3255 3056 2529 2285 2442 1870 2179 2226 1985 2221 2105 1900 1900 1613 1139 906 1028 1018 942 657 402 149 26 94 83 0 0 0 0 0 0 0 28 25 21 51 26 41 43
1454 1908 2271 2607 2966 3178 3090 2804 3084 2201 2667 2378 2286 2317 2082 2164 2159 1941 1593 1192 1076 1144 1296 973 629 339 86 30 142 0 0 0 0 0 0 0 8 19 22 29 20 29 23
1250 1827 2214 2556 2746 2803 2817 2896 2977 2743 2841 2839 2848 2363 2260 2334 2352 2266 1839 1585 1131 1298 1181 1151 976 742 319 111 126 92 0 0 0 0 0 0 6 9 23 16 23 14 17
1694 1893 2092 2471 2673 2601 2245 2289 2988 3056 3172 2866 2749 2291 2055 1600 1601 1876 1682 1718 1623 1315 1371 1132 1103 1122 741 453 299 345 0 0 0 0 0 91 36 9 18 18 17 23 23
1433 1874 2010 2201 2307 2171 2204 1876 2204 2058 2369 2422 2089 1747 1504 1162 1034 1375 1495 2032 1956 1702 1540 1406 1052 1103 1289 164 0 239 0 0 0 0 9 147 57 29 10 19 12 20 19
0 316 1783 1807 1809 1664 1752 1567 1802 1842 1792 1842 1635 1290 1167 1010 670 977 1044 1506 1499 1520 1085 1112 991 664 510 145 12 4 0 0 3 10 58 123 70 32 11 10 16 20 20
0 0 0 1297 1400 1279 1114 1218 1481 1627 1532 1609 1433 1119 920 718 432 340 530 755 961 812 669 564 341 245 247 106 0 7 0 0 2 16 32 188 89 53 30 16 16 13 6
0 0 0 0 23 368 491 355 806 1072 1195 1234 925 954 790 465 239 41 193 505 700 430 415 369 255 141 16 0 0 0 0 0 0 22 36 176 151 90 45 38 13 23 16
0 0 0 0 0 0 10 36 305 501 685 528 478 390 480 501 235 34 140 261 504 197 147 233 185 135 23 0 0 0 0 0 0 9 29 66 177 131 77 83 21 33 14
0 0 0 0 0 0 0 0 178 407 612 436 476 369 390 395 283 188 292 511 424 237 291 192 147 23 3 0 0 0 0 0 0 1 27 32 64 123 115 99 27 30 6
0 0 0 0 0 0 0 0 0 250 818 725 643 673 694 649 454 290 297 493 349 312 274 225 51 25 1 0 0 1 0 0 1 0 23 25 15 11 60 115 103 56 45
0 0 0 0 0 0 0 0 0 0 0 6 196 403 653 758 776 446 308 397 359 296 264 212 73 15 1 1 15 0 0 0 0 1 13 0 2 0 0 64 104 104 76
0 0 0 0 0 0 0 0 0 0 0 0 0 0 130 448 852 434 390 240 194 246 181 95 134 10 0 13 8 0 0 0 1 0 5 0 0 0 0 24 5 2 46
0 0 0 0 0 0 0 0 0 0 0 0 0 0 110 466 659 470 476 432 298 364 309 129 12 81 1 0 0 0 0 0 0 0 0 0 0 7 0 1 4 3 7
0 0 0 0 0 0 0 0 1 3 1 0 0 0 61 523 406 484 422 356 196 162 192 74 18 7 0 0 1 0 0 0 0 0 0 0 9 29 4 8 3 11 1
0 0 0 0 0 0 0 0 0 0 7 2 0 0 21 168 275 441 468 433 238 138 105 68 17 30 17 6 0 0 0 0 0 0 0 1 6 4 7 6 1 0 0
0 0 0 0 0 0 0 0 0 0 11 11 1 0 48 36 147 300 614 512 437 189 40 70 34 1 11 29 0 0 0 0 0 0 5 3 2 2 2 2 2 2 2
0 0 0 0 0 0 0 0 0 0 0 3 122 74 233 264 129 113 351 134 22 4 62 65 3 0 3 6 0 0 0 0 0 0 2 7 1 3 2 2 2 2 2
0 0 0 0 0 0 0 0 0 0 0 14 116 281 486 489 29 14 39 6 16 143 104 17 0 0 8 0 0 0 0 0 0 0 0 3 2 4 3 2 2 2 2

GFSSE_con_sbcape_207.txt.gz
CAPE
809 1037 2580 1866 1772 1792 1701 1689 1787 1130 823 884 1069 530 539 646 635 1087 1282 1047 684 351 175 85 147 250 450 128 1 0 0 0 0 0 10 22 26 15 8 30 23 21 36
1126 1141 2786 2270 1805 2119 2002 1912 1955 1346 815 735 1128 773 659 586 534 957 1267 1020 707 474 224 147 208 359 400 122 0 0 0 0 2 0 0 0 26 40 17 27 33 28 23
1158 1339 2394 2571 2715 2345 2307 1965 2164 1462 1015 771 931 825 583 540 566 706 1208 1114 885 495 251 206 257 362 384 127 0 0 0 1 0 0 0 4 13 33 17 12 34 32 11
1329 1594 2281 2945 3054 2804 2538 2431 2163 1619 1262 988 1092 989 752 703 552 530 1129 1227 978 514 300 250 342 353 365 167 0 0 0 0 0 0 0 4 25 16 44 29 28 46 39
1466 1890 2358 3245 3173 2990 2602 2155 2323 1934 1600 1164 1428 1234 1162 1028 553 462 916 1358 1080 632 315 231 323 285 286 136 0 0 0 0 0 0 3 15 17 18 46 32 38 49 60
1832 1960 2528 3453 3212 3130 2808 2453 2328 2130 1759 1382 1639 1721 1778 1443 997 628 936 1530 1199 802 381 247 246 221 174 251 1 0 0 0 0 0 2 7 11 34 22 29 14 45 50
2167 2261 2364 3346 3030 3035 2830 2511 2373 2220 2004 1739 1545 1946 2013 1741 1540 1113 867 1205 1206 1041 592 271 166 126 132 234 53 0 0 0 0 0 0 4 8 28 14 22 20 43 45
2141 2291 2386 3150 3344 3254 2921 2770 2721 2308 1963 2297 2146 1878 2284 1932 1899 1662 1230 1161 1235 1378 973 489 239 108 245 583 2 0 0 0 0 0 0 2 22 7 12 11 19 32 45
1974 2189 2356 2640 2909 3174 3170 2821 2868 2449 2196 2216 2313 2157 2077 2169 1837 2178 1706 1330 1223 1566 1264 983 466 161 183 319 124 0 0 0 0 0 0 5 20 14 11 10 23 34 29
1909 2094 2240 2487 2840 2777 2697 3048 2891 2717 2664 2544 2716 2472 2292 2364 2092 2283 1804 1609 1357 1307 1341 1303 948 453 180 314 318 232 0 0 0 0 0 5 9 9 5 12 22 26 28
1616 1867 2150 2334 2481 2798 2839 2824 2822 2818 2638 2466 2404 2440 2077 1774 1646 1584 1801 1768 1534 1421 1467 1416 1311 939 777 529 392 337 30 0 0 3 21 39 17 8 7 10 17 22 25
426 1032 1880 2174 2421 2111 2362 2938 3000 2720 2532 2240 1845 1953 1831 1773 1858 1478 1462 1925 1817 1514 1425 1422 1405 1107 1028 268 196 579 93 0 0 10 27 100 45 11 8 8 11 17 27
0 0 0 2 1913 2076 2121 2264 2369 2514 2732 2529 2083 1782 2274 2003 1924 1723 1641 1579 2028 1652 1499 1428 1407 1164 470 481 240 259 140 9 0 15 41 138 78 23 7 3 13 10 23
0 0 0 0 0 643 2064 1566 1399 2004 2116 2368 2239 2152 2445 2330 2064 1880 1737 1588 1828 1981 1838 1657 1603 1454 709 525 394 232 193 42 34 26 70 182 134 59 9 4 16 18 8
0 0 0 0 0 0 0 223 688 1002 1145 1816 2039 2076 1829 2076 2036 1665 1764 1639 1468 1148 1502 1766 1614 1363 1002 537 376 318 222 119 60 77 69 136 147 88 20 19 9 16 15
0 0 0 0 0 0 0 0 0 37 442 978 1392 1563 1536 1773 1710 1579 1196 1409 1577 1458 1166 1330 1607 1318 970 680 332 181 212 249 88 165 118 134 108 111 64 21 5 52 36
0 0 0 0 0 0 0 0 2 0 0 167 617 1176 1323 1438 1361 1359 1213 1188 1420 1460 1341 1133 1026 924 762 559 364 25 16 125 198 185 73 104 141 95 96 41 23 75 25
0 0 0 0 0 0 0 0 0 2 2 1 15 247 587 826 955 727 861 1116 1144 713 869 894 802 343 454 509 424 104 53 115 211 212 140 140 66 45 101 110 75 81 59
0 0 0 0 0 0 0 0 0 0 1 2 3 5 20 25 348 513 551 931 1045 995 872 708 404 611 109 22 197 97 153 129 142 179 108 26 2 18 131 105 61 88 68
0 0 0 0 0 0 0 0 0 0 0 0 1 1 3 8 27 161 664 886 860 578 495 475 385 240 117 101 101 14 8 54 186 250 184 3 28 46 97 88 37 78 87
0 0 0 0 0 0 0 0 0 0 0 0 0 1 0 1 7 67 278 638 832 703 483 348 201 90 44 140 10 6 5 31 108 91 5 3 19 53 94 47 57 66 48
0 0 0 0 0 0 0 0 0 0 0 0 0 0 2 14 18 2 110 242 448 572 457 488 807 297 196 16 80 4 5 7 3 5 3 3 33 62 82 62 13 8 10
0 0 0 0 0 0 0 0 0 0 0 0 0 0 5 2 30 96 75 150 383 617 580 610 822 706 380 117 117 96 4 7 4 5 5 3 2 3 5 6 6 5 10
0 0 0 0 0 0 0 0 0 0 0 0 0 0 24 28 45 120 305 245 222 449 743 689 591 942 733 113 3 0 1 3 5 8 5 4 5 4 5 5 4 3 3
0 0 0 0 0 0 0 0 0 0 0 0 0 0 18 83 170 336 386 430 381 418 628 748 586 451 912 426 317 3 2 1 0 1 4 6 4 5 5 5 4 5 3
0 0 0 0 0 0 0 0 0 0 0 0 0 1 20 71 165 252 458 508 535 664 773 557 421 307 626 709 583 32 4 0 0 0 5 8 3 6 7 4 3 3 3

GFSSE_con_sbcape_210.txt.gz
CAPE
1062 1729 2776 2222 2106 2056 1952 1795 1657 1079 1005 1412 924 624 737 611 1203 1249 1227 926 431 239 133 154 319 560 227 16 0 0 0 0 3 0 0 0 25 6 22 18 28 10 16
947 1229 2838 2493 2075 1972 1851 1895 1965 1289 942 1162 1012 746 801 684 915 1363 1333 874 614 267 209 212 394 500 256 16 0 0 1 6 0 0 0 20 75 25 13 21 13 14 18
1046 958 1951 2796 2299 2267 2206 2145 2056 1493 991 997 1314 946 735 663 605 1112 1395 1146 769 343 263 296 452 410 418 28 0 0 1 0 0 0 0 35 8 38 20 9 34 25 32
1177 1203 1792 2724 2885 2800 2537 2352 2301 1686 1242 1077 1135 1050 823 731 655 1068 1429 1322 918 418 296 383 461 380 378 22 0 0 0 0 0 0 9 10 8 35 10 24 23 25 16
1525 1381 2015 2909 3286 3118 2908 2597 2452 1981 1592 1235 1427 1295 1153 1092 737 690 1199 1492 1105 552 297 360 447 379 314 57 0 0 0 0 0 4 6 13 13 15 6 0 26 30 22
1585 1759 2590 3260 3093 2978 2583 2201 2435 2206 1912 1527 1605 1624 1607 1471 1003 717 984 1638 1289 751 368 294 416 313 249 152 0 2 0 0 0 2 7 9 39 3 17 9 15 23 20
1658 1861 2345 3195 3090 2844 2632 2352 2404 2303 2080 1835 1593 2021 1700 1670 1561 1152 1014 1615 1443 1063 534 309 307 276 214 377 2 0 0 0 0 0 3 13 20 10 6 12 4 16 24
1811 2038 2033 3164 3433 3253 2887 2612 2599 2416 2272 2108 2011 1837 2006 1912 1917 1736 1287 1181 1424 1471 1009 464 275 197 389 650 30 9 0 0 0 1 7 23 9 7 7 15 19 12 19
1893 2098 2183 2264 2774 3269 3359 3069 2655 2472 2474 2254 2298 2238 2114 2094 2242 1915 1937 1457 1326 1610 1378 983 475 243 439 674 104 40 0 0 3 0 7 29 2 8 8 5 9 13 19
2002 2201 2328 2371 2335 2404 2328 2764 2725 2579 2596 2598 2494 2525 2091 2034 2002 1780 1851 1752 1561 1390 1705 1432 1042 500 269 549 472 257 11 0 7 0 41 37 2 1 3 4 9 20 15
1645 2059 2214 2452 2492 2514 2456 2410 2813 2524 2538 2222 1984 2143 2205 1746 1397 1652 1485 1784 1725 1461 1549 1644 1315 1047 810 563 536 635 139 17 8 22 59 23 15 6 5 7 11 12 18
32 11 97 651 1507 2392 2613 2684 2724 2643 2481 2231 1986 1696 1558 1272 1120 1321 1298 1595 1920 1717 1624 1491 1374 1136 998 471 376 666 269 70 45 24 71 83 54 8 8 4 11 11 14
0 0 0 0 106 1223 1752 2244 2828 2843 2320 2179 1963 1878 1697 1424 1293 1478 1517 1654 1347 1712 1446 1292 1381 1300 854 464 449 334 305 166 127 100 72 132 107 11 7 5 3 13 14
0 0 0 0 0 0 233 154 1320 1614 2228 2469 2016 2042 1904 2210 1468 1311 1386 1478 1367 1152 864 1002 1393 1295 1174 780 541 390 237 178 178 145 150 134 153 102 14 10 8 11 12
0 0 0 0 0 0 0 0 0 37 644 1062 1404 2297 2441 1972 1996 1907 1415 1939 1636 1498 1417 1089 1225 1180 1014 798 570 475 341 179 191 193 230 128 128 148 53 47 14 12 17
0 0 0 0 0 0 0 0 0 0 6 149 923 1167 1842 2034 2011 1721 1566 1644 1540 2106 1797 1413 1054 984 960 867 696 443 465 195 263 359 340 160 111 144 93 53 23 20 20
0 0 0 0 0 0 0 0 0 0 19 38 71 169 416 1045 1598 1579 1670 1887 1636 2074 1828 1694 1248 803 706 907 923 725 527 303 437 471 456 236 167 108 139 60 49 50 22
0 0 0 0 0 0 0 0 0 0 0 17 26 56 93 67 86 1155 1454 1376 1886 1995 1942 1925 1169 704 888 785 901 855 598 268 285 565 317 149 135 162 88 100 62 49 32
0 0 0 0 0 0 0 0 0 0 0 0 3 3 20 61 100 137 537 845 958 1424 1542 1488 1371 981 921 904 1168 916 644 458 449 484 224 200 186 80 138 108 26 26 47
0 0 0 0 0 0 0 0 0 0 0 0 0 0 0 0 26 57 160 571 778 959 986 1448 1340 1132 1236 413 516 619 633 569 596 643 439 202 60 27 42 103 70 79 25
0 0 0 0 0 0 0 0 0 0 0 0 0 0 0 0 42 33 51 154 270 1064 1094 979 716 843 750 776 205 78 37 209 403 586 507 66 1 32 65 127 112 65 34
0 0 0 0 0 0 0 0 0 0 0 0 0 0 0 0 7 77 157 90 153 387 814 931 812 690 599 508 564 64 9 4 2 4 10 8 26 44 62 78 92 29 26
0 0 0 0 0 0 0 0 0 0 0 0 0 0 0 0 1 91 165 287 165 244 515 837 926 1006 767 237 589 411 44 9 4 6 2 2 2 2 3 4 7 8 34
0 0 0 0 0 0 0 0 0 1 4 5 6 4 1 0 34 108 289 412 568 474 436 550 891 923 1240 321 1031 747 386 42 5 6 5 4 2 3 4 5 6 4 3
0 0 0 0 0 0 0 0 0 0 0 0 0 2 0 3 21 177 240 381 474 516 528 555 925 909 1115 785 807 798 703 465 370 3 7 7 5 5 5 6 5 5 3
0 0 0 0 0 0 0 0 0 0 0 0 0 0 0 0 1 97 240 402 535 434 545 619 836 999 854 1173 1039 895 703 590 410 8 3 7 3 6 5 5 6 4 4

GFSSE_con_sbcape_216.txt.gz
CAPE
1894 1767 2872 2898 2435 2141 1998 1533 1290 996 765 785 641 814 854 486 1192 1299 1057 602 341 247 368 527 701 192 10 6 3 14 1 0 0 0 6 21 4 23 37 27 37 16 24
1958 1682 2984 2872 2326 2336 2112 1791 1422 1178 1325 1139 775 657 699 592 1276 1181 1106 767 407 276 339 531 706 290 27 12 23 10 0 0 0 0 6 228 171 61 19 20 15 19 21
1651 1764 2053 2992 2721 2234 1806 2133 1778 1369 972 1527 949 849 859 620 899 1257 1277 940 537 304 360 591 523 467 70 13 10 3 0 0 0 49 262 32 0 1 12 21 12 28 30
1176 1783 1744 3101 2794 2611 2449 2623 2081 1548 1117 1074 1348 1045 804 681 584 1080 1325 1192 697 380 376 566 463 521 77 9 5 0 0 0 0 186 0 11 1 6 6 14 17 14 24
855 1719 2260 3099 2905 2870 2696 2521 2489 1862 1383 1126 1116 1280 910 825 743 713 1336 1340 941 571 393 548 511 413 202 3 0 0 0 0 30 59 0 0 0 2 3 17 7 13 22
1056 2122 2689 3128 3006 2960 2410 2660 2493 2227 1779 1461 1386 1349 1312 1158 1032 749 895 1460 1288 749 425 514 590 459 383 58 4 0 0 0 3 0 0 0 0 3 8 12 2 19 16
1925 2472 2531 3222 3082 2869 2901 2601 2749 2655 2246 2057 1666 1699 1770 1702 1581 1255 892 1003 1445 1064 635 393 509 523 373 402 14 0 0 0 0 0 3 0 0 2 9 8 9 5 13
949 2544 2392 2966 3172 2657 2691 2515 2272 2239 2278 2136 2275 2182 1820 1892 1647 1598 1412 1503 1682 1438 962 600 418 469 428 379 350 37 0 0 0 2 1 0 0 0 7 2 18 4 10
1124 1093 1969 2069 2289 2566 2789 2669 2849 2625 2625 2578 2322 2391 2466 2400 2094 1995 1761 1641 1729 1661 1464 1009 627 412 324 536 760 153 26 54 0 0 8 0 0 1 4 2 19 16 17
231 48 5 64 633 1442 1741 1752 2243 2219 2600 2500 2373 2321 2391 2557 2246 2133 2077 1895 1732 1689 1755 1615 1110 727 469 607 902 352 438 234 0 0 13 7 6 0 0 4 5 13 23
0 0 0 0 0 223 1110 1642 2062 2406 2261 2162 2160 2161 1838 1641 1257 1372 1332 1665 2030 2139 2052 1660 1507 1459 1196 954 1185 1062 838 8 0 5 16 198 10 0 0 0 2 10 22
0 0 0 0 0 0 20 229 175 1003 1669 1742 1700 1279 1369 986 1024 877 1137 1529 1724 1881 1840 1711 1580 1336 1107 362 220 986 445 76 10 18 28 360 24 5 0 0 0 0 13
0 0 0 0 0 0 0 103 79 26 439 391 604 694 1237 1312 1090 973 559 1106 956 1259 806 1235 1124 1043 721 394 158 111 108 20 19 33 190 526 115 15 0 0 0 0 10
0 0 0 0 0 0 0 0 0 0 66 361 484 273 841 915 1054 946 1023 828 364 660 472 523 826 783 617 524 403 195 87 66 31 27 90 611 326 54 0 0 0 2 1
0 0 0 0 0 0 0 0 0 0 0 0 0 211 528 705 686 937 861 969 756 342 292 3 307 764 631 559 466 193 155 108 42 34 37 483 420 251 45 38 5 5 0
0 0 0 0 0 0 0 0 0 0 0 0 0 0 0 118 228 306 418 729 711 711 534 469 731 625 524 311 195 38 166 65 36 21 46 106 432 470 137 97 55 17 0
0 0 0 0 0 0 0 0 0 0 0 0 0 0 0 2 2 18 92 53 343 770 667 544 684 493 426 265 271 94 94 80 105 70 25 19 95 256 287 172 71 58 23
0 0 0 0 0 0 0 0 0 0 0 0 0 0 0 0 0 0 6 92 139 295 765 569 590 436 384 286 249 157 191 199 205 211 220 14 0 0 164 282 126 125 59
0 0 0 0 0 0 0 0 0 0 0 0 0 0 0 0 0 0 0 1 54 185 326 538 542 672 510 337 231 211 279 275 243 190 324 96 0 0 0 155 152 146 41
0 0 0 0 0 0 0 0 0 0 0 0 0 0 0 0 0 0 0 0 3 3 74 391 337 482 569 329 433 244 184 222 143 131 169 91 12 14 1 0 3 9 30
0 0 0 0 0 0 0 0 0 0 0 0 0 0 0 0 0 0 0 0 0 55 30 85 316 407 365 449 222 171 8 4 27 63 100 91 12 1 0 0 0 2 11
0 0 0 0 0 0 0 0 0 0 0 0 0 0 0 0 0 0 0 0 0 2 67 94 122 250 412 579 347 95 14 2 1 1 38 71 1 6 1 0 9 10 5
0 0 0 0 0 0 0 0 0 0 0 0 0 0 0 0 0 0 0 0 0 0 80 172 182 254 275 517 406 224 44 54 0 2 2 1 1 1 1 0 0 0 3
0 0 0 0 0 0 0 0 0 0 0 0 0 0 0 0 0 0 0 0 0 0 28 155 241 185 236 308 462 492 192 10 6 2 3 5 1 0 1 1 0 0 0
0 0 15 30 16 17 31 20 15 0 0 0 0 0 0 0 0 0 0 0 0 0 52 108 110 243 148 224 306 325 357 203 7 2 3 4 3 4 1 1 1 0 0
0 0 29 83 88 52 84 74 71 49 23 4 0 0 0 0 0 0 0 0 0 12 0 16 72 151 284 245 458 395 321 238 19 0 5 5 2 7 3 1 0 1 1